Regional Weather Roundup
Issued by NWS

Home | Current Version | Previous Version | Graphics & Text | Print | Product List | Glossary Off
Versions: 1 2 3 4 5 6 7 8 9 10 11 12 13 14 15 16 17 18 19 20 21 22 23 24 25 26 27 28 29 30 31 32 33 34 35 36 37 38 39 40 41 42 43 44 45 46 47 48 49 50

000
ASUS43 KMKX 051559
RWRWI

WISCONSIN REGIONAL WEATHER ROUNDUP
NATIONAL WEATHER SERVICE MILWAUKEE/SULLIVAN WI
1000 AM CST THU MAR 05 2015

NOTE: "FAIR" INDICATES FEW OR NO CLOUDS BELOW 12,000 FEET WITH NO
SIGNIFICANT WEATHER AND/OR OBSTRUCTIONS TO VISIBILITY.

WIZ001-002-006>008-014>016-023>028-051700-
NORTHWEST WISCONSIN

CITY           SKY/WX    TMP DP  RH WIND       PRES   REMARKS
SUPERIOR ARPT  SUNNY     -3 -12  66 SW7       30.48S WCI -16
ASHLAND        SUNNY      1 -11  57 W5        30.44F WCI  -9
HAYWARD        SUNNY     -4 -13  65 S6        30.43S WCI -16
SIREN          SUNNY     -2 -12  63 W5        30.48S WCI -12
CUMBERLAND     SUNNY     -6 -15  65 W6        30.44S WCI -18
RICE LAKE      SUNNY     -3 -13  63 W5        30.48S WCI -14
CHETEK         SUNNY     -3 -13  62 CALM      30.48R
LADYSMITH      SUNNY     -3 -13  63 CALM      30.45S
EAU CLAIRE     SUNNY     -1 -12  59 W7        30.50S WCI -14
MENOMONIE      SUNNY      0 -12  56 SW3       30.51S
NEW RICHMOND   SUNNY     -1 -11  64 W6        30.50R WCI -13
OSCEOLA        SUNNY     -3 -12  68 CALM      30.53S
$$

WIZ003>005-009-010-017-018-051700-
NORTH CENTRAL WISCONSIN

CITY           SKY/WX    TMP DP  RH WIND       PRES   REMARKS
MANITOWISH WTR SUNNY     -2 -12  60 W5        30.33S WCI -12
ARBOR VITAE    SUNNY     -1 -11  60 W6        30.34S WCI -12
WOODRUFF       SUNNY     -1 -11  60 W6        30.34S WCI -12
RHINELANDER    MOSUNNY    1 -11  57 W12       30.35R WCI -16
EAGLE RIVER    SUNNY      0 -13  54 W6        30.33R WCI -12
LAND O LAKES   SUNNY      2 -11  54 NW8       30.32S WCI -12
PHILLIPS       SUNNY     -1 -13  57 SW7       30.37F WCI -15
TOMAHAWK       SUNNY      1 -13  54 W8        30.38S WCI -14
MEDFORD        SUNNY     -3 -13  61 SW5       30.40R WCI -14
MERRILL        SUNNY     -1 -12  57 SW3       30.41R
$$

WIZ029-030-035-036-043>047-051700-
CENTRAL WISCONSIN

CITY           SKY/WX    TMP DP  RH WIND       PRES   REMARKS
WAUSAU         SUNNY      1 -11  57 W12       30.42R WCI -16
MOSINEE        SUNNY      1  -9  60 SW9       30.44R WCI -14
MARSHFIELD     SUNNY     -1 -13  56 W8        30.44R WCI -15
STEVENS POINT  SUNNY      2 -13  51 W6        30.45S WCI -10
WAUPACA        SUNNY      9  -8  46 SW5       30.48S WCI   1
WAUTOMA        NOT AVBL
WISC RAPIDS    SUNNY      5 -12  45 NW7       30.48S WCI  -7
CAMP DOUGLAS   NOT AVBL
$$

WIZ011>013-019>022-031-037>040-048>050-051700-
NORTHEAST WISCONSIN

CITY           SKY/WX    TMP DP  RH WIND       PRES   REMARKS
ANTIGO         SUNNY     -6 -13  71 S3        30.38R
SHAWANO        SUNNY      5  -8  52 SW6       30.46S WCI  -5
OCONTO         SUNNY      6  -6  57 W3        30.47S
STURGEON BAY   SUNNY      3  -6  66 CALM      30.46F
GREEN BAY      SUNNY      6  -6  57 W5        30.47S WCI  -3
MANITOWOC      NOT AVBL
APPLETON       SUNNY      3  -9  55 W6        30.46S WCI  -8
CLINTONVILLE   SUNNY      7  -8  51 W5        30.46F WCI  -2
OSHKOSH        SUNNY      6  -5  60 W7        30.47S WCI  -6
$$

WIZ032>034-041-042-053>061-051700-
SOUTHWEST WISCONSIN

CITY           SKY/WX    TMP DP  RH WIND       PRES   REMARKS
LA CROSSE      SUNNY      5 -10  50 CALM      30.55S
SPARTA         SUNNY      4 -10  53 NW5       30.52S WCI  -5
VIROQUA        SUNNY      1  -9  60 NW5       30.47S WCI  -8
BOSCOBEL       SUNNY      5  -7  57 S3        30.55S
PRAIRIE DU CHI SUNNY      3 -11  53 W3        30.56S
PLATTEVILLE    SUNNY      3  -7  63 NW5       30.50S WCI  -6
$$

WIZ056-057-062-063-064-067-068-051700-
SOUTH CENTRAL WISCONSIN

CITY           SKY/WX    TMP DP  RH WIND       PRES   REMARKS
REEDSBURG      SUNNY      3  -9  55 CALM      30.50R
BARABOO/DELLS  SUNNY      4 -10  51 CALM      30.48S
LONE ROCK      NOT AVBL
MINERAL POINT  SUNNY      7  -8  51 N5        30.47S WCI  -2
MADISON        SUNNY      7  -9  48 N8        30.49S WCI  -6
MIDDLETON      SUNNY      8 -10  43 NW6       30.49S WCI  -2
WATERTOWN      SUNNY      7  -6  55 NW7       30.47S WCI  -5
MONROE         SUNNY      9  -6  52 NW8       30.46S WCI  -4
JANESVILLE     SUNNY      9  -6  52 NW7       30.49R WCI  -3
$$

WIZ051-052-058>065-066-070>072-051700-
SOUTHEAST WISCONSIN

CITY           SKY/WX    TMP DP  RH WIND       PRES   REMARKS
MILWAUKEE      SUNNY     11  -8  42 NW10      30.47R WCI  -3
WAUKESHA       SUNNY      7  -9  47 NW12      30.47R WCI  -9
MILWAUKEE/TIMM NOT AVBL
RACINE         SUNNY     11  -8  42 NW8       30.48R WCI  -1
BURLINGTON     SUNNY      6  -9  49 NW7       30.47R WCI  -6
KENOSHA        SUNNY      8  -6  52 NW8       30.46S WCI  -4
FOND DU LAC    SUNNY      8  -7  50 N8        30.47F WCI  -4
SHEBOYGAN      SUNNY      7  -6  55 W8        30.46S WCI  -6
WEST BEND      SUNNY      9  -9  43 NW9       30.45S WCI  -5
JUNEAU         SUNNY      6 -10  49 W6        30.47S WCI  -5
$$

LSZ147-162-051700-
LAKE SUPERIOR

STATION/POSITION TIME  TEMP    WIND        PRES    WAVE
                       AIR SEA DIR/SP/G            HT/PER
                 (UTC) (F)     (DEG/KT/KT) (MB)    (FT/S)
DEVILS ISLAND    1500    0     230/ 14/ 18 1032.3R
PORT WING        1540   -1     210/  7/ 11 1031.5R
SAXON HARBOR     1500    0     200/  7/ 11 1031.2R
$$

LMZ867-665-643>646-051700-
LAKE MICHIGAN

STATION/POSITION TIME  TEMP    WIND        PRES    WAVE
                       AIR SEA DIR/SP/G            HT/PER
                 (UTC) (F)     (DEG/KT/KT) (MB)    (FT/S)
NORTHPORT PIER   1516    6     280/  5/ 10 1031.2R
SISTER BAY       1443    8     300/  7/  8   N/A
KEWAUNEE LAKESHO 1500    3     300/  8/ 10 1030.5R
SHEBOYGAN LAKESH 1500    5     280/  8/  9 1033.7R
PORT WASHINGTON  1540    9     310/  6/ 11 1032.8R
MILWAUKEE LAKESH 1500    8     310/  9/ 12   N/A
KENOSHA   LAKESH 1500    6     300/ 11/ 13 1031.5R
$$

TC  - TEMPERATURE IN CELSIUS
VSB - VISIBILITY IN STATUTE MILES
WCI - WIND CHILL INDEX
HX  - HEAT INDEX




USA.gov is the U.S. government's official web portal to all federal, state and local government web resources and services.